Location: Hains Lake
(37.8540°N, 99.8578°W)
Time: 13:42:50
(UTC+00:00)

Transit 2A - Pass Details

Date: 20 April 2021
Orbit: 602 x 957 km, 66.7° (Epoch: 13 May)

Event Time Altitude Azimuth Distance (km) Brightness Sun altitude
Rises 12:44:48 0° 188° (S) 3,160 9.0 8.4°
Reaches altitude 10° 12:47:22 10° 180° (S) 2,182 8.3 8.9°
Maximum altitude 12:51:55 39° 113° (ESE) 1,007 7.6 9.8°
Drops below altitude 10° 12:56:08 10° 45° (NE) 2,026 9.2 10.6°
Sets 12:58:27 0° 37° (NE) 2,906 9.7 11.1°
